Probability
5 7 10 12 18 24 27 30 30 25 20 16 13 9 6 5 4 2 1 0 0 0 0 0 0 0 0 0 0 0 0 0 0 0 0 0 0 0 0 0 0 0 0
4 5 6 9 14 18 22 26 30 29 23 20 17 12 7 6 5 3 1 0 0 0 0 0 0 0 0 0 0 0 0 0 0 0 0 0 0 0 0 0 0 0 0
3 3 4 5 8 11 14 20 27 29 26 26 23 17 12 9 6 4 3 1 1 1 0 0 0 0 0 1 0 0 0 0 0 0 0 0 0 0 0 0 0 0 0
3 3 3 4 6 8 10 15 20 24 26 29 28 23 17 12 8 6 4 3 1 1 0 0 0 0 0 0 0 0 0 0 0 0 0 0 0 0 0 0 0 0 0
3 3 3 3 4 6 8 11 15 19 23 29 30 25 18 13 9 7 5 3 3 2 1 1 0 0 0 0 0 0 0 0 0 0 0 0 0 0 0 0 0 0 0
3 3 3 3 3 4 6 8 11 14 19 24 28 24 19 15 11 9 7 5 4 4 3 2 1 1 0 0 0 0 0 0 0 0 0 0 0 0 0 0 0 0 0
3 3 3 2 1 2 4 5 7 10 13 18 23 24 21 18 14 12 10 8 6 5 4 4 3 1 0 0 0 0 0 0 0 0 0 0 0 0 0 0 0 0 0
1 2 1 1 1 2 3 3 4 5 8 13 19 22 23 21 16 12 10 8 7 6 6 5 4 1 0 0 0 0 0 0 0 0 0 0 0 0 0 0 0 0 0
0 0 0 0 1 2 2 2 1 2 5 8 13 18 20 20 16 11 8 7 7 6 6 6 4 2 1 0 0 0 0 0 0 0 0 0 0 0 0 0 0 0 0
0 0 0 0 0 1 1 1 0 1 3 5 7 11 14 15 12 9 7 7 6 6 6 5 4 3 2 1 0 0 0 0 0 0 0 0 0 0 0 0 0 0 0
0 0 0 0 0 0 0 0 0 1 2 3 4 6 7 7 7 5 5 5 5 4 4 4 3 3 3 2 0 0 0 0 0 0 0 0 0 0 0 0 0 0 0
0 0 0 0 0 0 0 0 0 1 2 2 3 3 2 2 3 3 2 3 3 3 2 2 3 3 3 1 0 0 0 0 0 0 0 0 0 0 0 0 0 0 0
0 0 0 0 0 0 0 0 0 0 1 1 1 1 0 0 1 1 1 1 1 1 1 1 1 2 2 1 0 0 0 0 0 0 0 0 0 0 0 0 0 0 0
0 0 0 0 0 0 0 0 0 0 0 0 0 0 0 0 0 0 0 0 0 0 0 0 0 1 1 0 0 0 0 0 0 0 0 0 0 0 0 0 0 0 0
0 0 0 0 0 0 0 0 0 0 0 0 0 0 0 0 0 0 0 0 0 0 0 0 0 0 0 0 0 0 0 0 0 0 0 0 0 0 0 0 0 0 0
0 0 0 0 0 0 0 0 0 0 0 0 0 0 0 0 0 0 0 0 0 0 0 0 0 0 0 0 0 0 0 0 0 0 0 0 0 0 0 0 0 0 0
0 0 0 0 0 0 0 0 0 0 0 0 0 0 0 0 0 0 0 0 0 0 0 0 0 0 0 0 0 0 0 0 0 0 0 0 0 0 0 0 0 0 0
0 0 0 0 0 0 0 0 0 0 0 0 0 0 0 0 0 0 0 0 0 0 0 0 0 0 0 0 0 0 0 0 0 0 0 0 0 0 0 0 0 0 0
0 0 0 0 0 0 0 0 0 0 0 0 0 0 0 0 0 0 0 0 0 0 0 0 0 0 0 0 0 0 0 0 0 0 0 0 0 0 0 0 0 0 0
0 0 0 0 0 0 0 0 0 0 0 0 0 0 0 0 0 0 0 0 0 0 0 0 0 0 0 0 0 0 0 0 0 0 0 0 0 0 0 0 0 0 0
0 0 0 0 0 0 0 0 0 0 0 0 0 0 0 0 0 0 0 0 0 0 0 0 0 0 0 0 0 0 0 0 0 0 0 0 0 0 0 0 0 0 0
0 0 0 0 0 0 0 0 0 0 0 0 0 0 0 0 0 0 0 0 0 0 0 0 0 0 0 0 0 0 0 0 0 0 0 0 0 0 0 0 0 0 0
0 0 0 0 0 0 0 0 0 0 0 0 0 0 0 0 0 0 0 0 0 0 0 0 0 0 0 0 0 0 0 0 0 0 0 0 0 0 0 0 0 0 0
0 0 0 0 0 0 0 0 0 0 0 0 0 0 0 0 0 0 0 0 0 0 0 0 0 0 0 0 0 0 0 0 0 0 0 0 0 0 0 0 0 0 0
0 0 0 0 0 0 0 0 0 0 0 0 0 0 0 0 0 0 0 0 0 0 0 0 0 0 0 0 0 0 0 0 0 0 0 0 0 0 0 0 0 0 0
0 0 0 0 0 0 0 0 0 0 0 0 0 0 0 0 0 0 0 0 0 0 0 0 0 0 0 0 0 0 0 0 0 0 0 0 0 0 0 0 0 0 0
Wind_Speed
4 3 3 3 5 7 9 11 11 11 9 8 8 7 7 6 5 5 7 8 7 8 7 5 5 5 5 5 4 3 2 2 1 1 1 2 1 1 1 1 1 1 1
3 3 2 2 5 8 9 11 11 11 11 9 7 5 5 4 4 4 6 7 7 7 7 6 5 5 4 4 4 3 2 2 2 2 0 2 3 2 2 1 1 1 1
5 4 4 4 4 6 8 8 10 10 11 10 6 4 3 2 3 5 5 6 7 7 7 7 6 5 5 5 5 4 4 3 2 2 3 2 2 2 1 2 2 2 2
5 5 5 4 5 6 6 7 8 9 9 9 8 9 8 7 7 7 6 6 7 7 7 7 7 6 5 5 5 4 3 4 3 2 2 2 2 1 2 1 1 2 2
6 6 6 5 5 5 5 6 7 8 8 9 10 10 8 6 4 5 7 7 6 6 6 6 6 6 5 5 5 5 4 3 3 3 2 2 1 2 2 3 2 0 0
6 6 4 3 3 3 4 4 6 7 8 9 10 10 10 8 7 7 7 6 4 4 5 5 5 5 4 5 5 5 4 3 3 2 2 2 2 2 3 4 3 2 1
5 4 4 4 4 5 5 5 6 6 7 8 10 10 10 10 10 8 8 7 5 4 6 5 5 5 5 5 4 4 4 4 3 3 2 2 2 1 1 2 2 2 1
4 4 4 4 4 5 5 6 7 6 6 7 8 8 8 6 6 7 6 7 5 5 6 6 5 5 5 4 4 3 3 3 3 2 2 1 1 1 2 2 1 2 2
3 3 2 2 2 3 4 5 6 5 5 5 5 5 6 6 6 6 5 5 4 4 6 5 5 5 5 5 4 3 3 3 2 2 2 1 1 1 1 1 2 2 3
3 2 2 1 1 1 1 1 3 4 4 5 5 4 5 6 6 6 6 5 5 5 6 6 5 5 4 5 4 4 3 3 2 2 2 1 1 1 1 1 1 2 3
3 3 2 2 1 2 1 1 1 2 3 4 4 5 4 5 6 6 6 6 6 6 6 6 6 6 5 5 4 4 4 4 2 2 2 1 1 0 0 1 1 2 2
3 3 2 3 2 2 2 1 1 1 2 3 4 4 4 5 6 6 6 6 7 6 6 6 6 6 5 4 5 4 4 4 3 2 2 1 1 0 0 1 1 1 2
4 4 4 3 3 2 2 2 1 1 2 3 5 5 5 5 5 6 6 6 7 7 6 6 6 6 5 5 4 4 4 3 3 2 2 1 1 1 1 1 1 1 1
4 4 4 4 3 2 2 1 1 1 2 3 4 5 5 5 6 6 6 6 7 7 6 6 6 5 5 5 4 4 4 3 3 2 2 1 1 1 1 1 1 1 1
5 4 4 4 3 3 2 1 0 1 2 3 4 4 4 5 6 6 6 6 6 6 6 6 6 5 4 4 5 4 4 4 3 2 2 1 1 1 2 1 1 1 1
6 5 4 4 4 3 2 2 1 1 2 3 4 4 5 6 6 6 7 7 7 6 6 6 6 5 3 6 7 5 4 4 3 2 1 1 1 1 2 2 1 1 2
7 7 6 5 5 4 3 2 2 2 3 3 4 5 5 6 6 6 7 6 6 6 6 5 5 5 4 6 6 6 5 3 3 2 2 1 1 3 2 3 4 4 3
8 7 7 6 5 4 3 2 1 3 3 3 4 4 5 6 6 6 6 5 5 5 5 5 5 4 3 5 5 6 5 3 2 2 2 2 2 1 2 2 3 3 4
6 6 6 5 5 4 2 1 1 2 3 4 4 5 6 7 7 7 6 4 5 4 4 4 5 4 3 4 5 6 4 3 2 2 2 3 2 3 4 3 2 2 3
6 6 5 5 4 4 2 0 1 2 3 4 4 4 5 6 7 6 5 4 4 4 4 4 3 4 3 4 5 7 3 3 2 1 2 4 4 5 4 4 3 2 0
6 6 5 5 5 4 2 1 1 2 2 2 3 4 5 5 6 6 4 5 5 5 4 4 3 3 3 4 6 7 4 4 3 2 2 2 5 5 5 5 4 4 3
6 6 5 5 5 4 2 1 2 2 0 2 3 4 5 5 5 6 5 5 6 5 4 3 3 2 3 4 6 8 7 7 4 3 3 3 6 6 6 4 5 6 4
6 4 4 5 5 4 3 2 3 1 1 2 3 3 4 4 5 6 6 5 5 4 4 4 3 3 3 4 8 8 9 9 5 4 6 7 7 6 4 5 6 4 3
5 4 4 4 5 4 4 2 2 1 1 2 2 3 4 4 4 4 4 4 5 5 4 4 4 3 3 3 3 3 3 6 4 3 5 6 6 5 4 4 2 2 4
4 4 3 3 4 4 4 4 3 1 1 1 2 2 3 3 3 3 3 4 4 5 6 5 5 4 4 6 9 6 4 4 4 4 2 2 2 2 2 2 2 3 3
4 3 3 3 4 4 4 4 3 2 1 1 1 2 2 2 3 3 2 3 4 6 8 8 7 6 7 7 8 10 11 11 10 6 3 4 4 4 4 4 4 4 4
Wind_Direction
234 222 204 190 195 193 192 190 188 189 184 180 182 185 190 185 182 187 191 191 191 189 187 188 179 177 183 186 176 166 174 187 156 127 321 312 294 306 315 326 337 354 4
259 235 212 208 201 196 193 193 192 191 193 191 186 180 173 178 179 182 190 191 190 189 191 189 186 181 181 180 176 167 163 174 162 154 162 321 330 359 24 36 45 30 42
241 238 214 210 212 208 203 197 193 195 197 191 173 159 145 136 167 188 193 195 194 193 189 186 183 183 182 186 184 178 177 184 186 179 172 191 255 304 328 38 45 40 46
232 234 218 210 206 211 208 204 199 200 196 187 181 183 186 192 196 190 188 189 192 192 190 185 183 182 181 181 182 181 181 174 189 195 208 205 185 219 296 310 45 50 45
235 232 227 221 217 207 201 201 200 204 199 192 190 194 200 201 185 173 177 182 185 188 189 186 182 183 182 181 176 173 179 179 181 182 175 192 210 209 226 271 270 288 72
253 244 236 223 224 203 195 192 197 204 199 193 194 195 198 193 178 180 182 181 178 181 186 183 181 180 179 180 176 172 172 180 181 180 176 175 192 205 211 244 249 249 215
255 255 245 225 223 218 208 196 194 204 201 195 196 198 197 192 192 189 187 179 179 185 190 182 179 176 173 169 160 160 166 174 178 181 188 197 207 189 209 242 254 244 218
268 258 242 230 224 225 222 206 200 202 196 196 195 193 193 189 187 186 181 183 185 185 175 173 169 167 158 153 154 155 158 153 160 162 167 185 205 193 200 215 231 257 239
279 275 267 245 235 230 230 212 201 198 188 188 186 182 183 180 175 170 167 171 163 152 152 155 153 151 146 141 141 136 137 136 138 150 162 178 197 199 212 215 213 229 252
322 323 328 343 315 271 263 218 192 184 178 174 175 176 176 170 160 155 158 156 150 145 147 147 144 139 134 132 132 129 131 128 125 137 150 164 184 194 206 231 241 236 243
342 343 353 356 13 26 14 22 132 145 156 160 160 157 158 156 151 149 153 152 145 146 148 146 140 137 135 134 132 132 133 132 132 137 147 158 161 188 235 237 229 234 235
356 358 10 13 22 29 16 16 52 136 149 140 132 139 141 143 143 144 145 141 139 141 139 135 132 132 133 132 134 138 137 140 147 148 144 152 133 181 270 262 255 248 241
8 11 11 14 12 17 13 10 27 97 119 129 131 131 136 138 139 138 135 135 135 133 131 132 134 133 132 128 129 132 133 136 138 139 148 154 146 237 272 270 265 258 258
1 6 358 353 352 358 2 2 18 71 113 126 132 135 140 139 135 131 128 129 129 129 127 125 127 128 126 127 128 125 124 118 109 112 127 150 175 216 238 249 254 248 237
354 354 341 334 336 341 342 343 15 88 118 130 132 137 132 126 125 123 122 121 121 124 125 122 117 116 119 128 129 125 127 123 112 98 94 110 156 202 206 209 224 210 205
340 339 333 324 315 306 304 306 257 158 132 139 143 135 130 127 129 129 126 122 120 120 120 121 124 122 122 136 137 136 129 131 135 134 121 106 93 76 65 60 74 170 193
338 336 329 318 310 300 280 264 239 173 153 150 144 141 141 140 139 134 130 130 129 124 121 123 126 125 130 137 137 136 130 136 148 155 151 128 100 84 70 55 48 35 24
333 330 326 319 314 306 294 265 201 169 164 159 153 152 148 146 143 139 139 136 131 131 131 134 132 127 137 142 140 134 125 134 145 155 162 158 147 147 129 99 68 39 20
319 315 313 308 310 312 305 252 186 170 170 175 171 168 158 153 151 150 146 137 133 131 134 137 143 145 155 160 158 142 129 136 147 159 170 173 178 195 165 132 114 61 13
325 325 326 327 327 326 328 207 204 187 203 201 185 170 164 161 160 155 146 137 139 143 142 142 152 159 170 181 178 159 142 151 164 172 193 207 205 210 194 160 156 166 228
325 331 335 337 330 328 332 309 246 236 233 186 160 159 161 160 153 145 142 144 143 143 147 153 162 173 191 202 199 184 158 169 177 189 199 220 224 220 212 188 181 202 176
332 337 339 340 338 343 358 352 320 303 202 153 154 155 152 148 146 146 145 147 150 153 159 166 178 194 208 215 216 210 199 187 179 193 198 212 223 224 220 204 198 202 169
331 337 340 341 347 354 7 356 332 342 115 132 146 146 141 141 148 152 154 155 162 167 176 180 194 207 207 221 224 222 215 208 191 195 205 213 221 226 226 219 212 194 156
328 333 341 348 348 352 358 351 337 358 100 132 142 140 141 143 148 155 163 171 178 182 185 191 202 208 209 213 214 213 215 217 204 192 210 219 222 211 204 218 216 171 171
326 335 338 342 341 350 356 355 359 25 85 117 131 137 144 153 160 170 185 192 199 194 192 196 194 197 216 221 211 196 195 186 184 161 152 162 174 191 188 189 191 183 185
324 332 337 342 345 352 351 352 357 16 93 117 133 148 155 162 167 172 188 214 214 217 218 211 203 211 220 225 223 221 217 211 202 185 180 194 199 206 207 206 206 202 202